User: anonymous   Login
Location: Unspecified
(0.0000°N, 0.0000°E)
Time: 18:02:47
(UTC+00:00)
Language:

USA 169 - Orbit

View from above orbital plane
View from above orbital plane
View from above satellite
View from above satellite

Ground track
Ground track

The orbit data is extracted from the following two-line orbital elements,

1 27711U 03012A   17320.32126872 0.00000000  00000-0  00000-0 0    01
2 27711   7.6260  51.1006 0001872 190.3296 169.7079  1.00270000    01
Epoch (UTC): 16 November 2017 07:42:37
Eccentricity: 0.0001872
inclination: 7.6260°
perigee height: 35779 km
apogee height: 35794 km
right ascension of ascending node: 51.1006°
argument of perigee: 190.3296°
revolutions per day: 1.00270000
mean anomaly at epoch: 169.7079°
orbit number at epoch: 0

The dashed part of the orbit path shows where the satellite is in the earth's shadow,  

DLR